Temp
-13 -13 -13 -13 -13 -13 -13 -12 -12 -11 -11 -11 -11 -12 -11 -11 -11 -11 -10 -10 -10 -10 -10 -10 -10 -10 -10 -10 -10 -9 -9 -8 -8 -8 -10 -11 -9 -9 -9 -9 -9 -9 -10 -8 -8
-13 -13 -13 -13 -13 -13 -13 -13 -13 -12 -12 -12 -12 -12 -12 -12 -11 -10 -11 -11 -11 -11 -11 -11 -11 -11 -10 -10 -10 -10 -9 -9 -9 -11 -12 -12 -9 -9 -9 -9 -9 -9 -9 -9 -9
-14 -13 -13 -13 -13 -13 -13 -13 -14 -13 -13 -13 -12 -12 -12 -12 -12 -10 -12 -12 -12 -11 -11 -11 -11 -11 -11 -10 -10 -10 -9 -10 -10 -10 -11 -12 -9 -10 -10 -9 -9 -9 -9 -10 -8
-14 -14 -14 -14 -14 -14 -14 -14 -14 -14 -14 -13 -13 -13 -13 -13 -13 -12 -12 -12 -12 -12 -12 -11 -11 -11 -11 -10 -10 -10 -10 -10 -10 -10 -10 -10 -10 -9 -10 -10 -10 -12 -8 -9 -9
-14 -15 -15 -15 -15 -15 -14 -15 -15 -14 -14 -14 -14 -14 -13 -14 -12 -12 -11 -12 -12 -12 -11 -12 -11 -11 -11 -11 -11 -10 -10 -11 -10 -11 -10 -10 -10 -10 -10 -10 -10 -9 -9 -9 -9
-15 -15 -15 -15 -15 -15 -15 -16 -15 -16 -16 -16 -16 -15 -14 -14 -13 -14 -12 -12 -12 -12 -12 -12 -11 -12 -12 -12 -11 -11 -11 -11 -11 -10 -11 -10 -10 -10 -10 -11 -10 -10 -9 -9 -9
-16 -16 -16 -16 -16 -16 -16 -17 -17 -18 -19 -18 -17 -16 -15 -13 -13 -14 -13 -12 -12 -13 -12 -12 -12 -12 -12 -11 -12 -12 -12 -11 -11 -10 -10 -10 -10 -10 -10 -11 -10 -10 -9 -10 -10
-16 -17 -17 -17 -17 -17 -18 -18 -19 -19 -19 -19 -18 -17 -16 -16 -15 -14 -14 -13 -12 -13 -13 -12 -13 -13 -13 -12 -13 -13 -12 -11 -10 -11 -10 -11 -9 -10 -10 -11 -10 -10 -10 -10 -10
-17 -17 -18 -18 -18 -18 -19 -20 -20 -20 -20 -19 -19 -17 -16 -16 -15 -14 -14 -13 -13 -13 -13 -13 -13 -12 -13 -13 -13 -13 -11 -10 -10 -11 -11 -11 -9 -10 -11 -11 -10 -10 -10 -10 -10
-18 -18 -19 -19 -19 -20 -20 -21 -21 -21 -20 -19 -19 -18 -17 -17 -16 -15 -14 -13 -13 -14 -14 -14 -14 -13 -13 -13 -12 -10 -10 -10 -10 -11 -11 -11 -10 -11 -11 -11 -10 -10 -10 -11 -11
-19 -19 -20 -20 -21 -21 -21 -21 -21 -21 -20 -20 -20 -19 -18 -17 -16 -16 -14 -14 -14 -14 -13 -14 -14 -13 -12 -11 -10 -11 -11 -11 -11 -11 -12 -11 -11 -10 -10 -11 -10 -11 -11 -10 -10
-20 -20 -21 -21 -22 -22 -22 -22 -22 -22 -21 -22 -21 -22 -20 -19 -16 -15 -15 -15 -14 -14 -13 -13 -14 -13 -12 -12 -12 -12 -12 -11 -11 -11 -12 -12 -11 -11 -12 -10 -10 -11 -10 -12 -10
-20 -21 -22 -22 -22 -23 -23 -22 -22 -22 -21 -21 -24 -23 -23 -21 -17 -16 -16 -16 -16 -15 -13 -14 -13 -12 -13 -13 -13 -12 -12 -11 -11 -12 -13 -13 -12 -12 -12 -10 -10 -10 -11 -11 -10
-21 -22 -22 -23 -23 -23 -23 -23 -23 -24 -22 -22 -24 -23 -23 -22 -18 -17 -17 -16 -16 -16 -16 -14 -13 -14 -13 -13 -13 -13 -12 -12 -12 -13 -14 -14 -13 -13 -11 -11 -10 -11 -10 -10 -10
-22 -22 -23 -23 -24 -24 -24 -23 -24 -25 -24 -25 -26 -25 -24 -24 -21 -19 -18 -17 -17 -16 -17 -16 -14 -13 -13 -12 -13 -13 -13 -13 -13 -13 -13 -14 -14 -11 -11 -10 -10 -10 -11 -11 -10
-22 -23 -23 -24 -24 -24 -24 -24 -25 -26 -26 -26 -26 -24 -24 -24 -24 -24 -22 -19 -17 -17 -17 -17 -16 -14 -13 -13 -13 -14 -14 -15 -15 -15 -16 -13 -14 -9 -10 -9 -10 -10 -10 -10 -10
-23 -23 -23 -24 -24 -24 -24 -25 -25 -26 -27 -26 -25 -25 -25 -25 -23 -23 -23 -21 -19 -17 -17 -17 -17 -15 -14 -13 -13 -14 -16 -16 -16 -15 -15 -13 -13 -9 -9 -10 -10 -10 -10 -10 -10
-23 -23 -24 -24 -24 -25 -25 -25 -25 -26 -27 -27 -26 -26 -25 -25 -24 -23 -22 -23 -21 -19 -18 -18 -17 -16 -15 -14 -14 -13 -13 -16 -15 -15 -11 -12 -14 -8 -7 -12 -11 -10 -9 -10 -11
-23 -24 -24 -25 -25 -25 -25 -25 -27 -28 -28 -27 -27 -26 -25 -25 -24 -24 -23 -23 -23 -22 -21 -20 -18 -17 -16 -15 -14 -14 -14 -12 -13 -15 -15 -15 -13 -10 -10 -11 -11 -11 -11 -11 -11
-24 -24 -25 -25 -25 -25 -25 -27 -27 -28 -28 -28 -27 -27 -25 -25 -26 -26 -25 -23 -23 -22 -22 -21 -19 -17 -17 -16 -15 -15 -15 -15 -16 -15 -15 -14 -14 -9 -9 -9 -10 -11 -11 -11 -11
-24 -24 -25 -26 -26 -26 -26 -26 -27 -28 -28 -28 -27 -26 -26 -25 -26 -26 -26 -25 -23 -22 -22 -21 -20 -18 -18 -17 -16 -15 -15 -15 -15 -15 -14 -11 -11 -8 -11 -11 -11 -11 -11 -12 -11
-24 -25 -26 -26 -26 -26 -26 -27 -27 -28 -28 -28 -28 -27 -26 -26 -25 -25 -26 -25 -23 -23 -22 -21 -21 -18 -18 -17 -17 -16 -15 -15 -15 -14 -13 -11 -11 -12 -12 -13 -12 -11 -11 -12 -12
-24 -25 -26 -26 -26 -27 -26 -26 -27 -28 -28 -28 -27 -27 -27 -26 -26 -26 -26 -26 -26 -23 -22 -22 -21 -20 -19 -19 -17 -17 -16 -16 -15 -15 -14 -13 -10 -13 -13 -13 -13 -12 -12 -11 -12
-24 -25 -26 -26 -26 -27 -27 -27 -26 -27 -28 -28 -28 -28 -27 -27 -26 -26 -26 -26 -26 -25 -23 -22 -21 -21 -20 -19 -17 -17 -16 -16 -15 -15 -15 -13 -11 -13 -13 -13 -12 -13 -12 -12 -12
-25 -25 -26 -26 -27 -27 -27 -27 -27 -27 -28 -28 -28 -28 -27 -27 -27 -27 -27 -26 -26 -26 -25 -23 -22 -21 -20 -19 -17 -17 -17 -16 -16 -16 -15 -14 -13 -15 -14 -13 -13 -12 -13 -13 -13
-25 -25 -26 -26 -27 -27 -27 -28 -28 -27 -28 -28 -28 -28 -28 -27 -27 -26 -27 -26 -26 -26 -26 -25 -23 -22 -21 -19 -19 -18 -17 -17 -16 -16 -16 -14 -13 -14 -14 -13 -13 -13 -12 -12 -13
-25 -26 -26 -27 -27 -27 -27 -27 -27 -28 -28 -29 -29 -29 -28 -27 -27 -27 -27 -26 -27 -26 -26 -26 -25 -23 -22 -21 -20 -19 -18 -17 -17 -16 -16 -14 -14 -15 -14 -14 -13 -13 -12 -12 -12
Height
5719 5718 5717 5717 5716 5715 5715 5716 5717 5719 5723 5727 5731 5737 5741 5746 5753 5759 5772 5778 5777 5782 5787 5790 5795 5799 5801 5805 5808 5809 5809 5813 5818 5820 5825 5827 5827 5829 5831 5833 5833 5835 5832 5832 5838
5710 5707 5705 5703 5700 5700 5701 5701 5701 5702 5704 5709 5714 5719 5726 5731 5738 5749 5763 5764 5768 5772 5776 5780 5786 5789 5793 5797 5799 5800 5803 5810 5814 5815 5819 5822 5822 5824 5827 5828 5829 5830 5829 5828 5834
5702 5698 5695 5692 5689 5687 5685 5684 5684 5685 5686 5690 5695 5701 5707 5714 5725 5747 5739 5749 5754 5759 5764 5769 5773 5777 5782 5787 5791 5794 5798 5805 5806 5805 5808 5811 5816 5819 5821 5824 5825 5826 5827 5825 5829
5692 5689 5686 5682 5677 5673 5670 5667 5666 5666 5666 5668 5674 5681 5689 5695 5706 5719 5723 5730 5737 5740 5747 5756 5762 5766 5772 5777 5783 5784 5792 5796 5800 5798 5800 5804 5810 5812 5816 5819 5819 5821 5820 5822 5823
5681 5676 5672 5668 5664 5659 5654 5649 5646 5646 5646 5647 5651 5658 5667 5670 5694 5699 5705 5716 5722 5727 5737 5746 5749 5757 5763 5770 5772 5777 5784 5788 5792 5792 5794 5798 5800 5806 5809 5813 5814 5815 5815 5817 5819
5668 5663 5658 5653 5649 5643 5637 5633 5629 5625 5624 5626 5629 5634 5641 5651 5684 5680 5696 5705 5711 5715 5721 5730 5738 5747 5751 5756 5762 5773 5774 5779 5782 5785 5785 5790 5792 5799 5804 5807 5808 5811 5813 5812 5813
5655 5650 5645 5639 5633 5628 5622 5617 5612 5608 5606 5606 5608 5611 5622 5654 5656 5666 5677 5686 5694 5704 5708 5716 5723 5725 5739 5744 5754 5758 5759 5767 5771 5776 5777 5782 5783 5786 5799 5799 5802 5805 5809 5809 5809
5642 5636 5630 5624 5618 5613 5607 5601 5597 5592 5591 5589 5591 5592 5606 5631 5634 5648 5658 5667 5675 5685 5694 5701 5707 5713 5719 5733 5735 5741 5748 5750 5764 5767 5769 5771 5774 5782 5789 5792 5795 5799 5802 5804 5806
5629 5623 5616 5610 5603 5597 5591 5587 5583 5577 5575 5574 5577 5577 5596 5611 5619 5626 5631 5647 5656 5667 5678 5682 5687 5699 5708 5710 5718 5725 5730 5737 5756 5757 5761 5761 5765 5774 5778 5785 5787 5790 5794 5797 5800
5616 5610 5603 5595 5588 5582 5577 5573 5569 5563 5561 5561 5562 5567 5579 5583 5594 5601 5616 5627 5637 5647 5654 5665 5672 5681 5686 5693 5695 5714 5720 5730 5738 5746 5750 5753 5755 5763 5772 5777 5778 5781 5784 5787 5790
5603 5596 5589 5581 5575 5568 5565 5561 5557 5553 5548 5548 5549 5552 5556 5557 5571 5583 5600 5603 5617 5624 5630 5653 5651 5650 5673 5687 5702 5714 5716 5721 5729 5738 5742 5745 5747 5754 5761 5766 5771 5771 5770 5776 5781
5591 5584 5577 5569 5563 5557 5552 5548 5545 5541 5540 5536 5537 5536 5537 5538 5556 5573 5578 5586 5594 5607 5620 5626 5616 5652 5675 5682 5688 5697 5702 5709 5719 5724 5731 5735 5737 5744 5749 5755 5762 5765 5766 5764 5769
5579 5572 5566 5559 5553 5547 5542 5539 5534 5529 5524 5530 5530 5527 5529 5526 5540 5555 5554 5567 5576 5583 5597 5604 5620 5654 5657 5665 5671 5678 5688 5697 5705 5715 5718 5722 5724 5732 5737 5744 5751 5755 5758 5758 5762
5569 5562 5556 5550 5544 5539 5534 5530 5525 5520 5514 5519 5519 5524 5521 5518 5529 5530 5539 5550 5557 5570 5584 5587 5610 5625 5636 5647 5659 5664 5681 5687 5695 5700 5702 5711 5709 5718 5727 5728 5738 5745 5747 5749 5753
5559 5553 5546 5538 5536 5530 5526 5521 5517 5511 5507 5514 5516 5514 5516 5517 5512 5517 5522 5531 5544 5563 5570 5574 5589 5604 5615 5629 5649 5654 5675 5676 5682 5684 5690 5695 5701 5702 5715 5714 5727 5731 5737 5739 5744
5549 5543 5537 5531 5526 5522 5518 5513 5510 5509 5504 5509 5514 5511 5511 5510 5508 5509 5512 5518 5529 5541 5555 5565 5576 5581 5600 5615 5629 5644 5652 5658 5663 5668 5665 5678 5689 5690 5696 5706 5715 5720 5727 5731 5737
5541 5535 5528 5523 5520 5514 5511 5507 5505 5501 5504 5507 5506 5506 5506 5507 5508 5506 5506 5510 5521 5530 5541 5558 5561 5573 5584 5594 5607 5614 5629 5636 5641 5643 5644 5666 5672 5679 5691 5699 5704 5710 5714 5719 5725
5533 5527 5520 5515 5511 5507 5504 5501 5497 5498 5498 5499 5500 5502 5505 5503 5503 5503 5503 5506 5509 5517 5527 5539 5550 5559 5570 5578 5595 5602 5607 5611 5614 5619 5633 5651 5643 5667 5687 5690 5694 5701 5705 5710 5713
5526 5520 5513 5508 5505 5500 5498 5496 5491 5491 5491 5493 5495 5495 5498 5499 5497 5493 5494 5499 5502 5505 5512 5523 5535 5550 5559 5570 5579 5594 5589 5613 5611 5617 5624 5632 5644 5660 5672 5678 5682 5685 5692 5696 5699
5521 5514 5506 5501 5498 5494 5493 5491 5486 5485 5485 5485 5488 5490 5491 5491 5490 5488 5489 5489 5490 5495 5500 5511 5528 5542 5550 5558 5566 5574 5589 5588 5589 5596 5603 5618 5630 5650 5660 5667 5674 5676 5680 5686 5689
5513 5508 5500 5496 5493 5489 5488 5485 5482 5481 5481 5484 5484 5484 5487 5486 5486 5487 5488 5485 5485 5490 5496 5501 5512 5532 5537 5544 5560 5565 5569 5574 5578 5582 5591 5610 5620 5644 5651 5655 5658 5663 5667 5670 5676
5506 5501 5495 5490 5487 5484 5482 5479 5478 5477 5477 5478 5479 5481 5483 5483 5483 5486 5484 5484 5482 5483 5489 5496 5505 5521 5531 5542 5549 5550 5558 5566 5561 5568 5580 5601 5616 5630 5637 5637 5645 5649 5654 5658 5661
5499 5495 5488 5484 5481 5479 5476 5474 5471 5472 5473 5475 5475 5476 5477 5479 5480 5479 5479 5479 5476 5477 5483 5489 5499 5515 5528 5535 5536 5536 5535 5544 5549 5558 5569 5587 5611 5622 5624 5628 5632 5630 5635 5642 5645
5492 5488 5482 5478 5474 5471 5469 5468 5466 5465 5466 5467 5468 5469 5472 5473 5474 5474 5475 5473 5474 5474 5477 5482 5489 5498 5510 5514 5519 5522 5525 5531 5540 5550 5555 5570 5603 5610 5605 5613 5612 5614 5625 5632 5638
5484 5479 5474 5473 5469 5465 5462 5460 5459 5459 5458 5460 5461 5464 5465 5467 5468 5470 5471 5471 5472 5471 5473 5476 5481 5487 5494 5503 5510 5511 5515 5520 5529 5540 5551 5568 5578 5595 5592 5597 5603 5609 5615 5620 5626
5478 5471 5467 5465 5463 5460 5456 5453 5451 5450 5449 5450 5452 5457 5456 5458 5460 5462 5464 5466 5467 5469 5471 5472 5473 5477 5484 5489 5496 5498 5509 5517 5525 5535 5545 5554 5565 5575 5576 5585 5591 5588 5593 5600 5608
5469 5464 5458 5459 5455 5451 5447 5444 5442 5439 5440 5440 5442 5444 5447 5450 5451 5454 5455 5458 5460 5464 5467 5469 5469 5471 5475 5477 5480 5492 5508 5513 5517 5525 5537 5547 5556 5561 5561 5570 5574 5574 5578 5586 5593
Wind_Speed
45 47 47 47 47 49 52 59 65 70 74 73 73 74 69 66 63 63 58 57 58 57 52 50 46 45 43 40 38 37 37 31 25 23 19 22 22 18 17 22 24 19 27 28 13
44 46 48 51 54 55 54 54 59 68 72 79 78 78 75 71 69 63 60 61 61 60 56 54 50 48 46 43 42 43 40 31 26 15 20 24 22 19 17 19 22 24 29 27 20
45 47 48 51 52 56 60 59 56 61 71 75 83 82 79 80 74 61 66 65 64 63 61 58 55 53 51 48 46 45 41 32 32 37 35 37 25 21 17 19 20 22 22 28 23
48 50 51 52 54 55 59 62 62 60 65 76 80 86 84 82 80 74 71 69 68 69 68 63 60 58 57 52 49 49 42 38 35 39 40 35 28 27 22 20 20 18 26 23 24
49 51 52 53 54 55 57 61 62 63 65 72 82 85 88 88 83 86 78 73 72 72 70 67 65 61 59 53 52 50 45 43 42 42 44 38 37 30 28 25 26 23 22 22 21
51 52 53 54 54 56 57 59 61 63 65 67 76 85 89 91 82 85 87 75 73 74 74 71 69 64 63 59 57 50 50 46 47 48 49 46 43 36 32 28 29 24 22 23 23
53 53 54 55 57 56 57 58 59 60 60 64 68 80 87 79 87 82 88 87 77 75 77 74 72 72 67 64 58 57 57 53 52 51 51 49 50 47 34 34 32 29 26 27 23
52 54 54 56 57 56 55 55 54 57 57 57 63 73 84 81 78 84 81 92 85 78 77 79 75 75 73 67 65 63 61 62 54 55 53 54 53 47 40 39 36 34 31 27 27
53 53 54 55 55 55 53 51 51 54 53 52 55 65 73 80 77 74 80 86 93 84 78 80 82 80 76 75 71 69 69 67 56 56 55 58 56 49 46 40 41 39 36 32 29
53 53 52 54 54 52 49 49 47 52 51 48 47 56 61 72 87 75 74 84 90 95 84 81 81 83 83 80 82 74 72 67 63 60 58 57 59 53 46 41 43 44 42 38 35
53 51 52 53 51 48 45 46 46 48 49 46 43 48 51 66 86 90 74 83 91 92 100 86 87 90 86 82 75 71 73 70 66 62 59 60 61 56 49 46 44 48 48 43 40
50 50 53 49 47 45 44 43 43 46 43 43 38 40 47 55 76 91 83 65 79 90 88 93 98 88 81 79 79 76 76 73 69 67 64 62 61 54 48 51 45 48 47 46 46
49 50 49 45 43 42 41 41 42 44 45 34 33 39 39 50 67 87 96 86 64 71 86 88 91 84 84 81 81 80 77 76 73 66 52 50 61 64 59 58 47 48 50 53 48
49 49 44 42 41 39 39 39 40 42 43 34 30 30 32 40 58 72 84 98 89 66 60 81 90 85 77 88 80 80 75 76 72 70 63 53 57 60 64 68 58 53 54 55 51
48 44 42 42 37 37 37 38 37 34 35 20 18 25 26 20 34 49 70 88 102 88 54 57 76 81 84 79 77 85 78 76 70 71 66 61 48 66 64 72 59 57 57 57 54
45 41 40 39 37 35 35 36 30 21 25 17 9 26 9 11 10 18 38 68 89 97 54 44 55 71 80 83 86 78 78 70 67 68 66 75 66 74 68 61 55 58 57 58 52
41 40 39 37 34 35 34 35 25 23 20 14 14 12 17 12 11 9 16 36 67 91 95 41 45 54 70 85 90 85 81 74 69 66 67 75 81 74 69 64 56 50 55 55 50
39 38 38 36 34 33 34 32 28 17 19 16 18 20 18 11 12 12 11 20 43 69 89 91 41 49 56 69 80 89 90 85 87 87 87 80 69 68 50 74 65 53 42 46 46
38 37 36 34 32 33 32 24 17 15 19 21 14 20 20 13 14 15 13 25 25 35 55 80 90 53 52 60 70 75 81 78 92 89 81 79 81 65 53 45 49 53 45 35 34
37 35 35 32 32 32 28 21 18 18 20 24 18 17 18 24 22 18 12 13 30 40 41 55 80 58 44 51 63 66 77 73 77 81 81 76 78 50 48 46 46 47 44 42 43
39 34 34 30 30 29 27 24 20 15 15 22 23 23 20 32 22 17 18 22 25 35 39 46 67 78 69 47 48 54 69 77 70 76 73 66 68 47 50 51 52 49 44 49 53
39 34 32 31 29 27 25 25 21 11 16 20 24 21 21 30 27 30 28 27 23 29 39 42 58 84 68 60 43 48 54 70 80 79 79 71 63 43 46 44 50 48 51 49 49
40 33 31 29 28 25 24 23 22 22 16 20 18 25 24 24 24 23 21 27 27 25 38 41 53 59 46 45 46 58 54 51 53 75 76 68 56 54 34 33 38 48 53 50 49
41 35 31 27 28 26 26 24 24 21 21 23 23 26 22 21 24 21 21 25 29 34 33 43 53 63 64 54 49 43 59 47 50 65 62 78 57 57 54 51 43 42 55 54 42
40 36 34 26 24 27 27 28 24 21 27 29 26 19 21 19 23 21 22 20 23 32 37 34 43 55 56 58 63 42 50 60 51 48 53 46 57 63 55 59 59 43 56 53 47
39 38 34 29 26 25 25 27 27 25 27 32 30 27 23 19 22 25 26 26 26 24 19 22 33 48 58 70 65 61 53 39 54 50 46 51 54 55 73 51 56 45 60 60 58
39 38 36 30 29 29 29 29 30 30 28 29 35 34 32 28 29 30 31 28 25 22 22 22 28 37 46 53 67 62 68 59 44 51 51 52 57 55 55 61 60 44 60 64 63
Wind_Direction
296 291 288 284 283 280 275 265 259 254 248 245 242 242 240 239 235 233 232 232 231 233 231 231 229 228 225 223 222 224 225 223 224 223 220 229 238 232 226 230 246 252 243 258 255
298 295 292 287 287 284 281 276 267 258 253 245 242 239 237 240 236 232 232 231 232 232 229 230 230 229 227 224 223 226 229 224 221 201 226 238 234 228 227 227 244 243 248 264 246
299 298 296 293 291 287 282 279 274 266 256 250 242 240 238 237 239 230 230 228 230 230 229 229 228 228 228 226 224 225 229 221 221 220 208 219 230 219 226 226 232 248 248 249 249
299 297 296 293 292 290 285 280 276 271 258 252 245 240 237 235 233 233 230 227 225 228 227 227 227 229 230 229 228 228 227 222 220 227 224 232 227 229 231 226 217 241 262 247 259
299 298 297 296 295 292 288 283 278 273 265 250 246 240 237 236 233 231 229 229 225 227 228 228 228 229 231 232 231 232 228 223 223 228 237 234 233 224 230 221 230 239 253 258 248
298 297 297 297 296 292 288 282 279 276 270 258 245 241 236 236 232 233 229 229 229 227 226 226 228 229 230 231 232 233 233 226 228 229 233 237 240 234 230 233 233 239 250 258 257
299 297 296 295 296 293 288 283 279 275 270 264 252 242 236 235 233 234 232 226 228 229 228 227 227 226 229 229 230 231 232 230 226 230 236 237 239 240 230 237 238 245 253 254 258
301 298 296 295 296 294 287 282 277 273 271 264 257 246 237 227 232 233 232 227 227 227 228 228 227 228 228 228 226 230 232 233 226 231 233 240 242 241 239 240 243 249 252 251 255
300 298 296 298 297 292 287 281 277 275 274 268 256 251 239 228 223 226 233 231 228 228 226 228 228 229 227 227 227 226 231 233 228 232 235 240 243 242 243 239 246 249 252 253 249
299 298 300 301 296 292 287 281 278 276 278 273 261 252 243 232 222 220 230 233 230 228 228 226 230 229 228 227 229 228 232 231 233 230 235 239 244 248 243 244 249 252 251 254 253
302 301 301 301 299 293 287 284 281 282 280 276 267 252 246 234 223 224 220 217 228 230 228 227 228 228 228 231 234 233 236 237 238 239 239 241 248 250 245 240 243 251 260 257 255
302 301 303 306 301 294 290 287 286 286 282 278 270 266 253 245 226 225 220 213 213 225 231 228 226 228 230 233 234 234 236 237 240 242 243 245 244 247 250 244 240 247 253 259 264
301 305 309 308 300 295 292 293 293 294 288 272 266 271 273 259 230 223 229 222 221 210 223 230 232 229 229 231 232 233 235 238 240 243 244 247 250 246 245 245 243 242 246 251 257
307 312 312 307 301 297 297 296 298 297 291 288 283 272 278 270 240 230 230 228 224 226 227 224 230 229 229 231 232 236 234 239 238 239 235 237 249 246 244 248 248 243 246 250 254
314 317 311 308 304 300 298 300 304 296 285 291 294 296 308 303 263 242 232 226 228 223 233 232 220 220 228 224 230 237 238 241 241 242 239 230 237 248 248 250 246 243 243 248 255
318 317 311 307 306 300 300 303 305 284 276 277 295 286 299 289 288 306 247 230 227 227 224 236 230 220 222 227 227 231 230 231 237 241 235 240 226 242 243 250 249 244 243 248 252
319 318 312 307 304 302 302 302 299 275 279 267 249 285 306 304 287 285 290 239 230 230 225 225 228 230 224 227 224 220 222 226 224 224 231 239 239 243 248 248 249 244 244 250 253
320 318 310 307 306 302 301 306 306 305 256 244 259 262 276 281 279 331 261 258 234 230 231 227 221 229 233 225 226 224 221 221 226 229 241 239 231 247 248 246 248 253 253 243 247
321 317 308 306 305 301 307 321 309 280 245 238 263 255 219 229 254 291 236 216 225 229 231 234 229 226 224 227 222 225 224 232 235 235 234 236 238 249 243 241 239 247 247 236 231
323 316 307 306 304 304 311 322 297 280 249 229 252 245 216 208 299 297 241 180 203 212 214 235 231 220 216 222 224 224 225 222 221 229 229 236 240 234 238 244 250 249 249 246 246
324 316 306 304 301 303 310 308 287 282 265 243 258 253 234 234 257 275 291 270 209 205 214 231 233 222 229 225 222 222 226 225 225 226 228 242 242 246 254 253 253 253 251 255 252
325 318 308 303 300 301 306 299 291 272 272 253 257 258 255 232 249 257 272 269 224 210 208 218 229 228 230 234 226 223 224 226 229 227 232 238 238 248 255 258 255 248 248 258 257
325 319 306 302 300 300 299 295 288 260 255 255 250 254 264 244 250 259 258 264 271 236 212 208 219 225 225 229 231 235 225 225 232 229 231 234 232 229 227 235 237 232 246 244 243
322 319 306 304 300 299 300 297 291 275 240 242 249 259 265 256 250 256 246 253 263 270 226 209 210 220 223 226 214 221 231 220 225 218 230 233 232 228 224 229 210 222 238 236 243
321 316 308 306 301 302 302 297 290 283 252 245 238 246 252 253 257 262 263 261 261 269 266 229 210 214 217 220 216 218 219 225 222 220 222 219 224 222 231 225 228 216 222 228 222
323 314 306 309 304 300 298 295 291 281 262 245 247 240 226 223 244 252 262 250 249 260 273 274 247 213 214 213 218 224 226 228 233 227 220 217 216 218 221 215 218 207 217 222 223
322 314 308 311 309 307 305 300 292 277 263 248 236 233 226 218 226 231 241 244 253 253 266 255 259 236 217 219 218 223 226 228 223 231 224 217 219 219 220 213 210 195 218 226 231